Mullan Pass, ID

8:38 AM PDT on October 19, 2019 (GMT -0700)
Mullan Pass

Weather History for KMLP - August, 2019

Change the Weather History Date:

Saturday, August 17, 2019

  Actual Average (K3TH) Record (K3TH)
Temperature  
Mean Temperature 50 °F -  
Max Temperature 57 °F 83 °F 100 °F (2001)
Min Temperature 46 °F 53 °F 46 °F (2002)
Degree Days  
Heating Degree Days 14    
Moisture  
Dew Point 43 °F    
Average Humidity 71    
Maximum Humidity 86    
Minimum Humidity 59    
Precipitation  
Precipitation 0.01 in - - ()
Sea Level Pressure  
Sea Level Pressure 29.82 in    
Wind  
Wind Speed 4 mph (West)    
Max Wind Speed 6 mph    
Max Gust Speed -    
Visibility 10 miles    
Events Rain    
Averages and records for this station are not official NWS values.
T = Trace of Precipitation, MM = Missing Value Source: NWS Daily Summary

Daily Weather History Graph

Daily Weather History Graph

Search for Another Location

Airport or City:

Astronomy

Aug. 17, 2019 Rise Set
Actual Time 5:41 AM PDT 7:51 PM PDT
Civil Twilight 5:07 AM PDT 8:24 PM PDT
Nautical Twilight 4:26 AM PDT 9:06 PM PDT
Astronomical Twilight 3:39 AM PDT 9:52 PM PDT
Moon 9:13 PM PDT (8/17) 7:38 AM PDT (8/17)
Length of Visible Light 15h 16m
Length of Day
14h 09m
Waning Gibbous, 95% of the Moon is Illuminated
Aug 17
Waning Gibbous
Aug 23
Last Quarter
Aug 30
New
Sep 5
First Quarter
Sep 13
Full

Hourly Weather History & Observations

Time (PDT) Temp. Dew Point Humidity Pressure Visibility Wind Dir Wind Speed Gust Speed Precip Events Conditions
12:53 AM 53.1 °F 39.0 °F 59% 29.74 in 10.0 mi Variable 5.8 mph - N/A   Mostly Cloudy
1:53 AM 52.0 °F 39.9 °F 63% 29.73 in 10.0 mi Variable 4.6 mph - N/A   Overcast
2:31 AM 51.1 °F 39.9 °F 66% 29.98 in 10.0 mi Variable 4.6 mph - N/A   Overcast
2:53 AM 51.1 °F 39.9 °F 66% 29.73 in 10.0 mi NNW 5.8 mph - N/A   Overcast
3:14 AM 51.1 °F 39.9 °F 66% 29.97 in 10.0 mi NNW 4.6 mph - N/A   Overcast
3:53 AM 50.0 °F 42.1 °F 74% 29.72 in 10.0 mi Calm Calm - N/A   Overcast
4:53 AM 50.0 °F 42.1 °F 74% 29.72 in 10.0 mi Calm Calm - N/A   Overcast
5:53 AM 46.9 °F 43.0 °F 86% 29.74 in 8.0 mi SSW 5.8 mph - 0.01 in Rain Light Rain
6:53 AM 46.9 °F 43.0 °F 86% 29.74 in 10.0 mi NW 3.5 mph - 0.00 in   Overcast
7:53 AM 48.0 °F 44.1 °F 86% 29.75 in 10.0 mi Calm Calm - N/A   Overcast
8:20 AM 48.9 °F 45.0 °F 86% 29.97 in 10.0 mi Calm Calm - N/A   Overcast
8:42 AM 48.9 °F 45.0 °F 86% 29.97 in 10.0 mi Calm Calm - N/A   Overcast
8:53 AM 48.9 °F 45.0 °F 86% 29.75 in 10.0 mi Variable 3.5 mph - N/A   Overcast
9:26 AM 51.1 °F 46.0 °F 83% 29.99 in 10.0 mi Variable 3.5 mph - N/A   Scattered Clouds
9:53 AM 53.1 °F 45.0 °F 74% 29.75 in 10.0 mi Variable 3.5 mph - N/A   Partly Cloudy
10:53 AM 54.0 °F 42.1 °F 64% 29.76 in 10.0 mi Variable 4.6 mph - N/A   Partly Cloudy
11:19 AM 53.1 °F 44.1 °F 71% 30.00 in 10.0 mi Variable 3.5 mph - N/A   Mostly Cloudy
11:46 AM 53.1 °F 45.0 °F 74% 30.01 in 10.0 mi Calm Calm - N/A   Mostly Cloudy
11:53 AM 52.0 °F 45.0 °F 77% 29.78 in 10.0 mi Calm Calm - N/A   Mostly Cloudy
12:35 PM 52.0 °F 45.0 °F 77% 30.01 in 10.0 mi Variable 3.5 mph - N/A   Overcast
12:53 PM 54.0 °F 45.0 °F 72% 29.77 in 10.0 mi Calm Calm - N/A   Overcast
1:53 PM 55.0 °F 45.0 °F 69% 29.78 in 10.0 mi Variable 3.5 mph - N/A   Mostly Cloudy
2:53 PM 55.9 °F 45.0 °F 67% 29.77 in 10.0 mi North - - N/A   Scattered Clouds
3:37 PM 55.9 °F 43.0 °F 62% 30.00 in 10.0 mi Variable 4.6 mph - N/A   Overcast
3:53 PM 55.9 °F 43.0 °F 62% 29.77 in 10.0 mi Calm Calm - N/A   Overcast
4:53 PM 54.0 °F 43.0 °F 66% 29.78 in 10.0 mi North - - N/A   Overcast
5:53 PM 54.0 °F 42.1 °F 64% 29.78 in 10.0 mi Variable 3.5 mph - N/A   Overcast
6:53 PM 54.0 °F 41.0 °F 62% 29.78 in 10.0 mi Variable 4.6 mph - N/A   Scattered Clouds
7:53 PM 52.0 °F 39.9 °F 63% 29.77 in 10.0 mi SW 5.8 mph - N/A   Clear
8:53 PM 52.0 °F 39.9 °F 63% 29.77 in 10.0 mi WNW 4.6 mph - N/A   Clear
9:53 PM 52.0 °F 39.9 °F 63% 29.75 in 10.0 mi Variable 3.5 mph - N/A   Clear
10:53 PM 51.1 °F 39.9 °F 66% 29.74 in 10.0 mi WSW 4.6 mph - N/A   Clear
11:53 PM 51.1 °F 39.9 °F 66% 29.74 in 10.0 mi SW 5.8 mph - N/A   Clear